Simultaneous Nadir Overpasses (SNOs) Predictions

Prediction of SNOs between LANDSAT-8 and METOP-A Satellite Orbit:

Table of predicted SNOs for the next 14.0 days since TLE Epoch: 2/23/2018
Index Date (LANDSAT-8) Time (LANDSAT-8) Lat,Lon (LANDSAT-8) SZA (LANDSAT-8 ) Date (METOP-A) Time (METOP-A) Lat,Lon (METOP-A) SZA (METOP-A ) Distance(km) Time Diff (sec)
1 02/26/2018 01:57:18 -81.30, 13.02 88.04 02/26/2018 01:56:46 -81.30, 12.90 88.07 2.01 32
2 02/26/2018 02:46:44 81.30,-179.24 91.96 02/26/2018 02:47:26 81.30,-179.37 91.97 2.24 42
3 02/28/2018 21:31:31 -81.29, 79.40 89.09 02/28/2018 21:31:03 -81.30, 79.42 89.10 0.69 28
4 02/28/2018 22:20:56 81.32,-112.51 90.96 02/28/2018 22:21:42 81.32,-112.49 90.98 0.40 46
5 03/03/2018 17:05:44 -81.31, 146.13 90.11 03/03/2018 17:05:20 -81.31, 146.32 90.10 3.23 24
6 03/03/2018 17:55:10 81.31, -46.19 89.89 03/03/2018 17:56:00 81.32, -46.01 89.93 3.06 50
7 03/06/2018 12:39:58 -81.30,-147.56 91.20 03/06/2018 12:39:39 -81.30,-147.56 91.20 0.19 19
8 03/06/2018 13:29:23 81.32, 20.48 88.85 03/06/2018 13:30:18 81.32, 20.46 88.87 0.70 55
9 03/09/2018 08:14:10 -81.31, -80.90 92.24 03/09/2018 08:13:56 -81.30, -81.07 92.27 3.11 14




NCC Satellite Simultaneous Nadir Overpasses (SNOs) Prediction Service
